Hourly Data Report for May 31, 2012

All times are specified in Local Standard Time (LST). Add 1 hour to adjust for Daylight Saving Time where and when it is observed.

GANDER INTL A
NEWFOUNDLAND

48°56'13.000" N
54°34'05.000" W
151.20 m
8401703
71803
YQX

Download Data

Hourly Data (May 2012)
Hourly Data Report for May 31, 2012
Temp Definition
°C
Dew Point Temp Definition
°C
Rel Hum Definition
%
Wind Dir Definition
10's deg

Wind Spd Definition
km/h
Visibility Definition
km
Stn Press Definition
kPa
Hmdx Definition


Wind Chill Definition


Weather Definition


TIME
00:30 1.7 1.3 97 31 12 2.4 99.37     Drizzle,Fog
01:30 1.9 1.5 97 30 10 2.4 99.34     Drizzle,Fog
02:30 2.0 1.7 98 30 12 2.4 99.33     Drizzle,Fog
03:30 2.2 1.9 98 31 14 0.4 99.32     Drizzle,Fog
04:30 2.3 2.0 98 33 12 0.4 99.31     Drizzle,Fog
05:30 2.9 2.6 98 34 11 0.4 99.30     Drizzle,Fog
06:30 3.4 3.1 98 34 14 2.4 99.34     Drizzle,Fog
07:30 4.4 4.1 98 34 13 2.4 99.38     Drizzle,Fog
08:30 5.1 4.7 97 36 14 6.4 99.36     Drizzle,Fog
09:30 5.8 5.2 96 34 13 9.7 99.36     Drizzle,Fog
10:30 6.7 6.0 95 33 13 9.7 99.36     Drizzle,Fog
11:30 6.9 5.7 92 33 14 9.7 99.32     Drizzle,Fog
12:30 7.5 6.8 95 32 13 6.4 99.33     Drizzle,Fog
13:30 8.4 6.2 86 36 15 10.0 99.30     LegendNANA
14:30 9.7 6.4 80 1 14 10.0 99.26     Cloudy
15:30 9.9 6.6 80 0 13 10.0 99.28     LegendNANA
16:30 9.4 6.2 80 36 14 10.0 99.30     LegendNANA
17:30 9.0 6.3 83 1 17 10.0 99.29     Cloudy
18:30 8.4 6.2 86 0 9 10.0 99.34     LegendNANA
19:30 7.7 6.0 89 35 8 10.0 99.36     LegendNANA
20:30 7.2 6.0 92 1 11 10.0 99.40     Cloudy
21:30 6.4 5.5 94 2 5 10.0 99.39     Drizzle
22:30 6.1 5.7 97 35 6 4.8 99.35     Drizzle,Fog
23:30 5.9 5.6 98 34 7 4.0 99.34     Drizzle,Fog

Notes on Data Quality.

Legend

  • E = Estimated
  • M = Missing
  • NA = Not Available
Date modified: